sat.trackr.live / text

‹ back to catalog

HULIANWANG DIGUI-72

NORAD 65232 · 2025-178E

PAYLOAD ACTIVE UNKNOWN

§ Identity

Operator
Country
PRC
Launch date
2025-08-17
Launch site
TAISC
Launch vehicle
Mass (kg)
RCS (m²)

External: N2YO · Heavens-Above · Gunter

§ Orbital elements

Epoch: 2026-05-25T03:12:23.877216Z

Period
108.73 min
Inclination
86.5002°
Eccentricity
0.0001659
Mean motion
13.24411153 rev/d
Perigee alt
1,166.7 km
Apogee alt
1,169.2 km
Semi-major
7,546.1 km
B*
1.0899e-4
RAAN
21.2826°
Arg perigee
87.1638°
Mean anomaly
272.9686°
Rev number
3,726

§ Raw data

HULIANWANG DIGUI-721 65232U 25178E   26145.13360969  .00000061  00000+0  10899-3 0  99922 65232  86.5002  21.2826 0001659  87.1638 272.9686 13.24411153 37269

JSON: /api/v1/satellites/65232 · /tle

For live sub-satellite position, see the globe view (requires WebGL).

§ Visibility from observer

Set your observer location to see the next 7 days of passes ≥ 10°. The values pass through the URL so the page stays shareable.

No JS? Fill the form by hand. The geolocation button needs JavaScript.